Torna al catalogo

NIMBUS 2 DEB

AttivoLEO
NORAD 37892·DEBRIS·🇺🇸 United States

Lanciato May 15, 1966 da Vandenberg Space Force Base

Loading…

Prossimi Passaggi (prossime 24 ore)

TLE

AggiornatoSource: Space-Track

Epoca: Sep 14, 2026, 09:32 UTC

1 37892U 66040AX  26257.39732693  .00001388  00000-0  22904-2 0  9998
2 37892 100.5011 220.8694 0053370 342.9235 168.6425 13.48552917373905

Traccia NIMBUS 2 DEB in tempo reale con AllMySat

Download on the App Store